Date,TemperatureHighF,TemperatureAvgF,TemperatureLowF,DewpointHighF,DewpointAvgF,DewpointLowF,HumidityHigh,HumidityAvg,HumidityLow,PressureMaxIn,PressureMinIn,WindSpeedMaxMPH,WindSpeedAvgMPH,GustSpeedMaxMPH,PrecipitationSumIn
2013-12-1,48.4,37.6,30.9,36.6,29.5,24.1,84,73,60,30.11,29.98,5,0,0,0.00
2013-12-2,43.5,36.3,31.6,35.8,31.3,27.1,89,82,73,29.99,29.78,0,0,0,0.00
2013-12-3,49.3,43.4,36.9,46.7,40.8,33.9,92,91,89,29.79,29.72,7,1,0,0.00
2013-12-4,60.6,50.5,39.0,57.2,48.1,36.9,94,91,82,29.78,29.58,10,2,0,0.00
2013-12-5,53.1,31.4,23.5,48.0,25.3,15.8,85,78,71,30.24,29.71,9,0,0,0.00
2013-12-6,23.5,21.3,15.4,15.9,14.0,8.9,75,73,70,30.48,30.22,7,1,0,0.00
2013-12-7,23.5,15.8,9.3,10.1,7.1,3.2,77,69,53,30.66,30.49,11,1,0,0.00
2013-12-8,27.0,22.5,15.6,24.1,17.3,9.7,89,80,74,30.55,29.98,2,0,0,0.00
2013-12-9,27.0,21.7,13.1,24.1,16.1,4.2,89,79,67,30.24,29.98,5,0,0,0.00
2013-12-10,26.4,14.7,2.1,15.1,6.3,-4.4,76,69,61,30.32,30.11,8,0,0,0.00
2013-12-11,23.7,16.2,4.3,17.9,9.3,-2.6,80,74,68,30.56,30.28,0,0,0,0.00
2013-12-12,25.5,12.8,-1.3,12.7,3.5,-7.5,76,66,57,30.57,30.27,0,0,0,0.00
2013-12-13,36.0,25.6,14.5,25.8,17.1,7.4,86,70,60,30.28,30.07,0,0,0,0.02
2013-12-14,32.2,29.4,26.2,29.4,26.4,23.1,90,88,86,30.10,29.80,0,0,0,0.18
2013-12-15,26.4,17.1,11.5,23.0,12.7,7.2,87,83,80,30.11,29.97,0,0,0,0.02
2013-12-16,22.8,18.3,13.6,19.2,14.4,9.9,88,85,82,30.12,30.01,0,0,0,0.00
2013-12-17,29.1,21.4,17.8,26.0,18.2,14.7,90,88,82,30.14,30.00,0,0,0,0.00
2013-12-18,39.4,24.5,11.1,27.2,16.6,6.3,83,72,59,30.21,29.92,0,0,0,0.00
2013-12-19,45.0,41.2,39.0,38.7,34.7,27.8,89,78,64,29.96,29.84,0,0,0,0.00
2013-12-20,56.5,49.2,36.7,54.2,46.8,33.7,93,91,88,29.83,29.70,0,0,0,0.06
2013-12-21,35.4,33.9,31.8,33.3,31.7,29.5,92,92,90,29.83,29.48,0,0,0,0.84
2013-12-22,35.4,33.1,28.9,33.3,30.8,25.6,93,91,87,30.10,29.48,0,0,0,0.39
2013-12-23,28.8,20.9,8.6,25.1,16.2,3.2,87,82,76,30.46,30.11,0,0,0,0.00
2013-12-24,18.5,10.2,2.5,11.6,3.9,-3.2,78,76,69,30.57,30.41,0,0,0,0.00
2013-12-25,29.3,24.6,18.5,25.9,17.9,11.5,87,75,68,30.41,30.14,0,0,0,0.00
2013-12-26,35.8,28.5,17.8,26.6,22.0,12.7,88,77,66,30.34,30.15,8,1,0,0.00
2013-12-27,45.1,35.5,25.5,34.4,28.6,21.3,86,76,65,30.34,30.19,15,1,0,0.00
2013-12-28,51.8,41.1,34.3,37.1,32.2,28.8,80,71,56,30.18,29.92,11,2,0,0.00
2013-12-29,38.5,32.3,22.3,30.4,26.8,17.6,88,80,70,30.13,29.81,12,1,0,0.00
2013-12-30,21.6,16.2,12.9,17.0,10.0,7.0,83,76,71,30.31,30.13,8,0,0,0.00
2013-12-31,23.2,17.5,10.6,16.1,12.0,5.5,82,79,74,30.39,30.16,5,0,0,0.00